| Temperature (°F) | Max | Average | Min |
|---|---|---|---|
| Max Temperature | 82 | 78.04 | 68 |
| Avg Temperature | 80.5 | 74.63 | 66.5 |
| Min Temperature | 80 | 70 | 65 |
| Precipitation (in) | Max | Average | Min | Sum |
|---|---|---|---|---|
| Precipitation | 0 | 0 | 0 | 0 |
| Dew Point (°F) | Max | Average | Min |
|---|---|---|---|
| Dew Point | 67 | 64.57 | 62 |
| Wind (mph) | Max | Average | Min |
|---|---|---|---|
| Wind | 12 | 7.07 | 3 |
| Gust Wind | - | - | - |
| Sea Level Pressure (in) | Max | Average | Min |
|---|---|---|---|
| Sea Level Pressure | 26.16 | 26.08 | 25.99 |
| Date | Temp High/Low | Dew Pt High/Low | Humidity | Wind | Max Wind | Wind Gust | Pressure | Precip. | Condition |
|---|---|---|---|---|---|---|---|---|---|
| 12/1/2022 | 82 °F / 72 °F | 66 °F / 62 °F | 68 % | 7 mph | - | 26.04 in | 0 in | ||
| 12/2/2022 | 82 °F / 75 °F | 66 °F / 65 °F | 63 % | 8 mph | - | 26.04 in | 0 in | ||
| 12/3/2022 | 82 °F / 76 °F | 67 °F / 63 °F | 60 % | 8 mph | - | 25.99 in | 0 in | ||
| 12/5/2022 | 82 °F / 71 °F | 65 °F / 64 °F | 64 % | 11 mph | - | 26.1 in | 0 in | ||
| 12/6/2022 | 81 °F / 80 °F | 65 °F / 65 °F | 60 % | 12 mph | - | 26.08 in | 0 in | ||
| 12/7/2022 | 73 °F / 70 °F | 68 °F / 66 °F | 87 % | 7 mph | - | 26.11 in | 0 in | ||
| 12/8/2022 | 82 °F / 70 °F | 67 °F / 63 °F | 68 % | 8 mph | - | 26.07 in | 0 in | ||
| 12/9/2022 | 80 °F / 65 °F | 65 °F / 64 °F | 71 % | 9 mph | - | 26.11 in | 0 in | ||
| 12/10/2022 | 77 °F / 67 °F | 63 °F / 61 °F | 68 % | 7 mph | - | 26.1 in | 0 in | ||
| 12/11/2022 | 76 °F / 71 °F | 65 °F / 64 °F | 71 % | 6 mph | - | 26.07 in | 0 in | ||
| 12/12/2022 | 80 °F / 68 °F | 67 °F / 66 °F | 74 % | 8 mph | - | 26.06 in | 0 in | ||
| 12/13/2022 | 74 °F / 66 °F | 68 °F / 65 °F | 88 % | 6 mph | - | 26.09 in | 0 in | ||
| 12/14/2022 | 80 °F / 80 °F | 63 °F / 63 °F | 56 % | 3 mph | - | 26.02 in | 0 in | ||
| 12/15/2022 | 81 °F / 69 °F | 66 °F / 64 °F | 73 % | 8 mph | - | 26.08 in | 0 in | ||
| 12/16/2022 | 80 °F / 67 °F | 66 °F / 63 °F | 70 % | 7 mph | - | 26.05 in | 0 in | ||
| 12/17/2022 | 80 °F / 68 °F | 64 °F / 62 °F | 66 % | 8 mph | - | 26.04 in | 0 in | ||
| 12/18/2022 | 81 °F / 71 °F | 68 °F / 63 °F | 68 % | 7 mph | - | 26.02 in | 0 in | ||
| 12/19/2022 | 72 °F / 66 °F | 66 °F / 64 °F | 87 % | 6 mph | - | 26.08 in | 0 in | ||
| 12/21/2022 | 68 °F / 65 °F | 64 °F / 63 °F | 89 % | 6 mph | - | 26.13 in | 0 in | ||
| 12/22/2022 | 80 °F / 68 °F | 66 °F / 62 °F | 75 % | 6 mph | - | 26.06 in | 0 in | ||
| 12/23/2022 | 73 °F / 66 °F | 66 °F / 65 °F | 87 % | 6 mph | - | 26.1 in | 0 in | ||
| 12/24/2022 | 74 °F / 74 °F | 64 °F / 64 °F | 71 % | 3 mph | - | 26.06 in | 0 in | ||
| 12/25/2022 | 77 °F / 66 °F | 67 °F / 64 °F | 80 % | 6 mph | - | 26.13 in | 0 in | ||
| 12/26/2022 | 78 °F / 68 °F | 66 °F / 65 °F | 74 % | 7 mph | - | 26.13 in | 0 in | ||
| 12/27/2022 | 73 °F / 66 °F | 65 °F / 62 °F | 78 % | 6 mph | - | 26.16 in | 0 in | ||
| 12/29/2022 | 76 °F / 73 °F | 64 °F / 64 °F | 71 % | 6 mph | - | 26.09 in | 0 in | ||
| 12/30/2022 | 80 °F / 74 °F | 68 °F / 58 °F | 65 % | 8 mph | - | 26.12 in | 0 in | ||
| 12/31/2022 | 81 °F / 68 °F | 68 °F / 57 °F | 67 % | 8 mph | - | 26.14 in | 0 in |